STARLINK-1064 (44769 NORAD) Tracking and Keplerian Element Data

This shows tracking and keplerian element data for the satellite.

Feedback or suggestion? Click here.




ElementValue
Catalog44769
NameSTARLINK-1064
Epoch Orbit1035
Epoch Day17.91667824
Epoch Year2020
RAAN214.7892
Inclination53.0025
Eccentricity0.0001543
Argument of Perigee84.35
Mean Anonmoly233.6823
Mean Motion15.05567464
Decay Rate0.00020156
L11 44769U 19074BJ 20017.91667824 .00020156 00000-0 13990-2 0 9992
L22 44769 53.0025 214.7892 0001543 84.3500 233.6823 15.05567464 10352

Live tracking and technical data element details for STARLINK-1064 (NORAD 44769). STARLINK-1064 can be tracked NOW for your location showing map with azimuth and elevation plus other details from your city location.

Track the satellite on the map from your city or location and see movement details for azimuth, elevation, latitude, longitude, range, height, and movement on the map or in text.







IsCatalogInMostPopularTable: catalog: 44769, numindb: 18
Update: records affected: 1



GetName: 44769 STARLINK-1064

Hit Count: updated at: Sat, 18 Jan 2020 18:21:17 GMT